TimeEDT,TemperatureF,Dew PointF,Humidity,Sea Level PressureIn,VisibilityMPH,Wind Direction,Wind SpeedMPH,Gust SpeedMPH,PrecipitationIn,Events,Conditions,WindDirDegrees,DateUTC
12:56 AM,71.1,66.9,87,30.01,-9999.0,South,3.5,-,N/A,,Partly Cloudy,170,2013-04-19 04:56:00
1:56 AM,71.1,66.0,84,30.00,-9999.0,South,4.6,-,N/A,,Clear,190,2013-04-19 05:56:00
2:56 AM,72.0,66.0,81,29.98,-9999.0,South,5.8,-,N/A,,Clear,190,2013-04-19 06:56:00
3:56 AM,72.0,66.0,81,29.97,-9999.0,SSW,6.9,-,0.01,,Clear,200,2013-04-19 07:56:00
4:56 AM,73.0,68.0,84,29.95,-9999.0,South,8.1,-,N/A,,Clear,190,2013-04-19 08:56:00
5:48 AM,73.4,69.8,88,29.95,-9999.0,SSW,10.4,18.4,N/A,,Mostly Cloudy,200,2013-04-19 09:48:00
5:56 AM,73.0,69.1,87,29.95,-9999.0,SSW,11.5,18.4,N/A,,Mostly Cloudy,200,2013-04-19 09:56:00
6:56 AM,73.0,69.1,87,29.97,-9999.0,SSW,11.5,18.4,N/A,,Overcast,210,2013-04-19 10:56:00
7:56 AM,73.9,69.1,85,29.98,-9999.0,SSW,11.5,20.7,N/A,,Overcast,200,2013-04-19 11:56:00
8:56 AM,73.9,69.1,85,29.99,-9999.0,SSW,8.1,19.6,N/A,,Overcast,200,2013-04-19 12:56:00
9:56 AM,77.0,70.0,79,29.99,-9999.0,SSW,4.6,-,N/A,,Mostly Cloudy,200,2013-04-19 13:56:00
10:19 AM,75.2,69.8,83,29.98,-9999.0,South,5.8,-,N/A,,Overcast,180,2013-04-19 14:19:00
10:56 AM,77.0,69.1,76,29.97,-9999.0,SSW,5.8,-,N/A,,Overcast,200,2013-04-19 14:56:00
11:56 AM,79.0,66.9,66,29.97,-9999.0,South,10.4,28.8,N/A,,Overcast,190,2013-04-19 15:56:00
12:56 PM,82.0,69.1,65,29.94,-9999.0,South,13.8,23.0,N/A,,Scattered Clouds,190,2013-04-19 16:56:00
1:56 PM,82.0,70.0,67,29.92,-9999.0,South,12.7,28.8,N/A,,Partly Cloudy,190,2013-04-19 17:56:00
2:56 PM,81.0,69.1,67,29.90,-9999.0,SSW,16.1,27.6,N/A,,Mostly Cloudy,200,2013-04-19 18:56:00
3:56 PM,80.1,69.1,69,29.88,-9999.0,South,11.5,25.3,N/A,,Mostly Cloudy,190,2013-04-19 19:56:00
4:56 PM,78.1,69.1,74,29.87,-9999.0,South,15.0,24.2,N/A,,Overcast,190,2013-04-19 20:56:00
5:56 PM,75.9,69.1,79,29.88,-9999.0,SSW,9.2,16.1,N/A,,Mostly Cloudy,200,2013-04-19 21:56:00
6:09 PM,75.2,68.0,78,29.87,-9999.0,SSW,9.2,18.4,N/A,Thunderstorm,Thunderstorm,200,2013-04-19 22:09:00
6:29 PM,71.6,66.2,83,29.94,-9999.0,West,21.9,25.3,0.01,Rain-Thunderstorm,Light Thunderstorms and Rain,270,2013-04-19 22:29:00
6:40 PM,69.8,66.2,88,29.92,-9999.0,WSW,17.3,31.1,0.48,Rain-Thunderstorm,Heavy Thunderstorms and Rain,240,2013-04-19 22:40:00
6:44 PM,69.8,66.2,88,29.91,-9999.0,WSW,12.7,24.2,0.56,Rain-Thunderstorm,Heavy Thunderstorms and Rain,250,2013-04-19 22:44:00
6:56 PM,69.1,66.9,93,29.91,-9999.0,WSW,17.3,23.0,0.74,Rain-Thunderstorm,Heavy Thunderstorms and Rain,250,2013-04-19 22:56:00
7:38 PM,69.8,66.2,88,29.89,-9999.0,SSW,9.2,-,0.21,Rain,Light Rain,210,2013-04-19 23:38:00
7:56 PM,69.1,66.9,93,29.90,-9999.0,SSW,5.8,-,0.22,Rain,Light Rain,210,2013-04-19 23:56:00
8:56 PM,69.1,66.9,93,29.91,-9999.0,SW,3.5,-,0.00,,Mostly Cloudy,230,2013-04-20 00:56:00
9:56 PM,70.0,68.0,93,29.93,-9999.0,South,3.5,-,N/A,,Mostly Cloudy,180,2013-04-20 01:56:00
10:46 PM,69.8,66.2,88,29.95,-9999.0,West,11.5,-,N/A,,Overcast,280,2013-04-20 02:46:00
10:56 PM,70.0,66.9,90,29.95,-9999.0,WNW,11.5,18.4,0.01,Rain,Light Rain,300,2013-04-20 02:56:00
11:18 PM,68.0,64.4,88,29.96,-9999.0,WNW,6.9,-,0.00,,Overcast,300,2013-04-20 03:18:00
11:37 PM,66.2,64.4,94,29.96,-9999.0,NW,11.5,-,0.00,,Overcast,310,2013-04-20 03:37:00
11:47 PM,66.2,62.6,88,29.97,-9999.0,NW,9.2,-,0.00,,Overcast,310,2013-04-20 03:47:00
11:56 PM,66.0,63.0,90,29.97,-9999.0,NW,8.1,-,0.00,,Overcast,320,2013-04-20 03:56:00